Kihei, HI

12:14 PM HST on June 25, 2017 (GMT -1000)
Central Kihei | | Change Station
Active Advisory: Special Statement

Elev 26 ft 20.75 °N, 156.45 °W | Updated 41 seconds ago

Mostly Cloudy
Mostly Cloudy
86.7 °F
Feels Like 92 °F
N
7.0
Wind Variable Wind from West
Gusts 11.0 mph

Today
High -- | Low -- °F
--% Chance of Precip.
Yesterday
High -- | Low -- °F
Precip. -- in
Pressure 30.03 in
Visibility 10.0 miles
Clouds Few 3000 ft
Scattered Clouds 5000 ft
Heat Index 92 °F
Dew Point 71 °F
Humidity 60%
Rainfall 0.00 in
Snow Depth Not available.
5:46 AM 7:10 PM
Waxing Crescent, 5% visible
METAR PHOG 252154Z 04018KT 10SM FEW030 SCT050 31/21 A3001 RMK AO2 SLP169 T03110206
Pressure 30.03 in
Visibility 10.0 miles
Clouds Few 3000 ft
Scattered Clouds 5000 ft
Heat Index 92 °F
Dew Point 71 °F
Humidity 60%
Rainfall 0.00 in
Snow Depth Not available.
5:46 AM 7:10 PM
Waxing Crescent, 5% visible
METAR PHOG 252154Z 04018KT 10SM FEW030 SCT050 31/21 A3001 RMK AO2 SLP169 T03110206

Get Your Daily Forecast Email!

Thanks for signing up!

Be on the lookout for a verification email in your inbox.

You'll start receiving severe weather alerts in your inbox..

×

10-Day Weather Forecast

Almanac

Astronomy

Jun. 25, 2017 Rise Set
Actual Time
Civil Twilight
Nautical Twilight
Astronomical Twilight
Moon
Length of Visible Light
Length of Day
Tomorrow will be .
, % of the Moon is Illuminated

Today's Extremes

State Highs State Lows

Community

WunderPhotos

Category 6

Welcome to Category 6. This is the collective home for Weather Underground's featured writeups by Dr. Jeff Masters (right), Bob Henson (left), Chris Burt, and other regular contributors.

Nearby

Air Quality

  Air Quality AQ Index Pollutant
Not available.

Snow Depth

Station Depth Elevation

Earthquake Activity

City Distance Mag. Time & Date
Minimum magnitude displayed is 2.5.

Coastal Water Temperatures

Place Temperature

Stations

Nearby Weather Stations

Station Location Temp. Windchill Dew Point Humidity Wind Precip. Elev Updated Type
                   

Watches & Warnings

Special Statement
Issued: 6:36 AM HST Jun. 24, 2017 – National Weather Service

... Coastal flooding possible...

Coastal flooding associated with King tides will be a possibility
the next couple of days, especially along south facing shores,
where surf will be elevated. The greatest potential for coastal
flooding impacts will be during the mid- to late-afternoon hours
today, when highest tides are expected.

Impacts may include flooding of beach areas that are normally
dry, as well as inundation of typically vulnerable low-lying
roads, docks, boat ramps and other coastal infrastructure.

The potential for coastal flooding will decrease into next week
as the peak daily tides diminish.

Visit tidesandcurrents.NOAA.Gov for more specific information
about forecast tides and water levels in your area.